[Iaude] MPEC A18: 2024 AE [a=1.27,e=0.39,i=7.2,H=25.0]
    mpec at marsden.cfa.harvard.edu 
    mpec at marsden.cfa.harvard.edu
       
    Tue Jan  2 21:18:48 EST 2024
    
    
  
M.P.E.C. 2024-A18                               Issued 2024 January 3, 02:17 UT
     The Minor Planet Electronic Circulars contain information on unusual
         minor planets, routine data on comets and natural satellites,
         and occasional editorial announcements.  They are published
    on behalf of Division F of the International Astronomical Union by the
          Minor Planet Center, Smithsonian Astrophysical Observatory,
                          Cambridge, MA 02138, U.S.A.
			  
             Prepared using the Tamkin Foundation Computer Network
                              MPC at CFA.HARVARD.EDU
            URL https://www.minorplanetcenter.net/    ISSN 1523-6714
                                    2024 AE                                     
Observations:
     K24A00E* C2024 01 01.23951403 53 09.386+09 44 54.87         20.10wXEA018F52
     K24A00E  C2024 01 01.25194003 53 22.395+09 44 44.08         20.77wXEA018F52
     K24A00E  C2024 01 01.26435303 53 35.639+09 44 32.90         20.30wXEA018F52
     K24A00E  C2024 01 01.34356703 54 58.128+09 43 19.22         20.34GVEA018F51
     K24A00E  C2024 01 01.34420703 54 58.658+09 43 18.74         20.44GVEA018F51
     K24A00E KC2024 01 01.36350803 55 13.566+09 42 19.55         20.04GVEA018I52
     K24A00E KC2024 01 01.36475403 55 14.876+09 42 17.71         20.14GVEA018I52
     K24A00E KC2024 01 01.36600003 55 16.212+09 42 16.63         20.57GVEA018I52
     K24A00E KC2024 01 01.36725203 55 17.537+09 42 15.48         20.21GVEA018I52
     K24A00E 0B2024 01 01.86456 04 03 58.41 +09 36 59.4          21.0 VZEA018M49
     K24A00E 0B2024 01 01.87041 04 04 03.83 +09 36 53.9          19.8 VZEA018M49
     K24A00E 0B2024 01 01.87625 04 04 09.27 +09 36 48.4          20.3 VZEA018M49
     K24A00E KB2024 01 02.08855 04 07 38.24 +09 31 03.6          20.4 GXEA018H36
     K24A00E KB2024 01 02.09878 04 07 47.43 +09 30 54.3          20.5 GXEA018H36
     K24A00E KB2024 01 02.10884 04 07 56.41 +09 30 44.9          20.5 GXEA018H36
     K24A00E |C2024 01 02.13201004 08 13.500+09 33 04.60         20.4 GVEA018807
     K24A00E |C2024 01 02.13441204 08 15.620+09 33 02.40         20.3 GVEA018807
     K24A00E |C2024 01 02.13689004 08 17.830+09 32 59.90         20.4 GVEA018807
     K24A00E KC2024 01 03.06673404 21 37.25 +09 16 48.4          20.5 GVEA018H21
     K24A00E KC2024 01 03.07270404 21 41.69 +09 16 43.6          20.3 GVEA018H21
     K24A00E KC2024 01 03.07801604 21 45.62 +09 16 39.5          20.6 GVEA018H21
Observer details:
807 Cerro Tololo Observatory, La Serena.  Observers T. Linder, R. Holmes, L.
    Horn.  0.61-m f/11 Ritchey-Chretien + CCD.
F51 Pan-STARRS 1, Haleakala.  Observers J. Herman, T. Lowe, P. Minguez, A.
    Schultz, I. Smith.  Measurers K. Chambers, T. de Boer, J. Fairlamb, H.
    Gao, M. Huber, C.-C. Lin, E. Magnier, Y. Ramanjooloo, R. Wainscoat, R.
    Weryk.  1.8-m Ritchey-Chretien + CCD.
F52 Pan-STARRS 2, Haleakala.  Observers J. Herman, T. Lowe, P. Minguez, A.
    Schultz, I. Smith.  Measurers K. Chambers, T. de Boer, J. Fairlamb, H.
    Gao, M. Huber, C.-C. Lin, E. Magnier, Y. Ramanjooloo, R. Wainscoat, R.
    Weryk.  1.8-m Ritchey-Chretien + CCD.
H21 Astronomical Research Observatory, Westfield.  Observer R. Holmes.
    Measurers T. Linder, R. Holmes, L. Horn.  0.76-m f/3.0 astrograph + CCD.
H36 Sandlot Observatory, Scranton.  Observer G. Hug.  0.56-m f/4.8 reflector +
    CMO.
I52 Steward Observatory, Mt. Lemmon Station.  Observer G. J. Leonard.
    Measurers E. C. Beshore, D. Fay, J. B. Fazekas, D. C. Fuls, A. R. Gibbs,
    A. D. Grauer, H. Groeller, J. K. Hogan, R. A. Kowalski, S. M. Larson, G.
    J. Leonard, D. Rankin, R. L. Seaman, F. C. Shelly, K. W. Wierzchos.  1.0-m
    prime focus + CCD.
M49 IAS Remote Observatory, Hakos.  Observers D. Husar, M. Junius.  Measurer
    D. Husar.  0.25-m f/4.5 reflector + CMO.
Orbital elements:
2024 AE                                                  Earth MOID = 0.0040 AU
Epoch 2023 Sept. 13.0 TT = JDT 2460200.5                MPC                     
M 325.09850              (2000.0)            P               Q                  
n   0.68675259     Peri.  101.90463     +0.95678528     -0.26259824             
a   1.2723380      Node   273.41580     +0.19328710     +0.89523463             
e   0.3916767      Incl.    7.18876     +0.21726027     +0.35999601             
P   1.44           H   25.07          G   0.15           U   7                  
Residuals in seconds of arc
240101 F52  0.4+  0.0     240101 I52  0.1+  0.0     240102 H36  0.5+  1.2-
240101 F52 (1.8-  0.1+)   240101 I52  0.0   0.2+    240102 807  0.1-  0.0
240101 F52  0.6+  0.1-    240101 M49  0.1+  0.1-    240102 807  0.1-  0.1+
240101 F51 (1.3+  0.2-)   240101 M49  0.0   0.0     240102 807  0.2+  0.1-
240101 F51  0.6-  0.1-    240101 M49  0.5+  0.1+    240103 H21  0.0   0.0
240101 I52  0.1+  0.3+    240102 H36  0.4+  0.0     240103 H21  0.1+  0.0
240101 I52  0.0   0.2-    240102 H36  0.7+  0.5-    240103 H21  0.0   0.1+
Ephemeris:
2024 AE                  a,e,i = 1.27, 0.39, 7                   q = 0.7740
Date    TT    R. A. (2000) Decl.     Delta      r    Elong.  Phase     V
2023 12 04    19 00 32.5 -05 00 05   0.1699  0.8589    38.3   134.6    27.1
...
2023 12 19    20 31 58.2 -00 02 05   0.06250 0.9423    46.8   130.4    24.7
...
2023 12 27    01 01 22.6 +09 34 14   0.03487 0.9920   103.2    74.9    20.4
...
2024 01 02    04 06 10.2 +09 33 36   0.06102 1.0304   139.4    38.4    20.6
2024 01 03    04 20 41.0 +09 18 52   0.06728 1.0368   141.6    36.1    20.8
2024 01 04    04 32 44.6 +09 05 33   0.07378 1.0433   143.2    34.4    20.9
...
2024 01 10    05 16 08.1 +08 16 37   0.1159  1.0822   146.8    29.9    21.9
...
2024 01 18    05 42 58.6 +08 03 44   0.1771  1.1341   145.4    29.5    22.9
...
2024 02 02    06 10 23.6 +08 39 45   0.3043  1.2289   138.1    32.3    24.3
A. U. Tomatic                (C) Copyright 2024 MPC           M.P.E.C. 2024-A18
    
    
More information about the Iaude
mailing list